Weather History for Laurinburg-Maxton, NC

Change the Weather History Date:

Saturday, February 25, 2012

  Actual Average (KLBT) Record (KLBT)
Temperature  
Mean Temperature 46 °F 49 °F  
Max Temperature 54 °F 61 °F 74 °F (2011)
Min Temperature 37 °F 37 °F 25 °F (2009)
Degree Days  
Heating Degree Days 18 16  
Month to date heating degree days 464  
Since 1 July heating degree days 2183  
Cooling Degree Days 0 0  
Month to date cooling degree days 0  
Year to date cooling degree days 1  
Moisture  
Dew Point 22 °F    
Average Humidity 39    
Maximum Humidity 55    
Minimum Humidity 24    
Precipitation  
Precipitation 0.00 in 0.11 in 0.22 in (2007)
Month to date precipitation 2.57  
Year to date precipitation 5.54  
Sea Level Pressure  
Sea Level Pressure 30.13 in    
Wind  
Wind Speed 10 mph (NW)    
Max Wind Speed 17 mph    
Max Gust Speed 31 mph    
Visibility 10 miles    
Events      
T = Trace of Precipitation, MM = Missing Value Source: NWS Daily Summary

Daily Weather History Graph

Daily Weather History Graph

Search for Another Location

Airport:

Trip Planner

Search our weather history database for the weather conditions in past years. The results will help you decide how hot, cold, wet, or windy it might be!

Date:

Astronomy

Feb. 25, 2012 Rise Set
Actual Time 6:52 AM EST 6:09 PM EST
Civil Twilight 6:26 AM EST 6:34 PM EST
Nautical Twilight 5:57 AM EST 7:04 PM EST
Astronomical Twilight 5:28 AM EST 7:33 PM EST
Moon 8:26 AM EST (2/25) 9:55 PM EST (2/25)
Length of Visible Light 12h 07m
Length of Day
11h 16m
Waxing Crescent, 13% of the Moon is Illuminated
Feb 25
Waxing Crescent
Feb 29
First Quarter
Mar 8
Full
Mar 14
Last Quarter
Mar 22
New

Hourly Weather History & Observations

Time (EST) Temp. Windchill Dew Point Humidity Pressure Visibility Wind Dir Wind Speed Gust Speed Precip Events Conditions
12:52 AM 48.9 °F - 24.1 °F 38% 29.91 in 10.0 mi NW 12.7 mph 25.3 mph N/A   Partly Cloudy
1:52 AM 46.9 °F - 24.1 °F 41% 29.94 in 10.0 mi NNW 10.4 mph 19.6 mph N/A   Clear
2:52 AM 45.0 °F 40.1 °F 24.1 °F 44% 29.96 in 10.0 mi NW 9.2 mph 18.4 mph N/A   Clear
3:52 AM 44.1 °F 39.5 °F 24.1 °F 45% 29.99 in 10.0 mi NW 8.1 mph - N/A   Clear
4:52 AM 39.9 °F 35.8 °F 25.0 °F 55% 30.02 in 10.0 mi WNW 5.8 mph - N/A   Clear
5:52 AM 41.0 °F 36.4 °F 25.0 °F 53% 30.04 in 10.0 mi WNW 6.9 mph - N/A   Clear
6:52 AM 39.9 °F 34.5 °F 23.0 °F 51% 30.09 in 10.0 mi WNW 8.1 mph - N/A   Clear
7:52 AM 41.0 °F 35.8 °F 24.1 °F 51% 30.12 in 10.0 mi West 8.1 mph - N/A   Clear
8:52 AM 46.0 °F 41.4 °F 25.0 °F 44% 30.15 in 10.0 mi West 9.2 mph 19.6 mph N/A   Clear
9:52 AM 48.0 °F - 21.0 °F 34% 30.14 in 10.0 mi WNW 16.1 mph 25.3 mph N/A   Clear
10:52 AM 48.9 °F - 19.0 °F 31% 30.15 in 10.0 mi WNW 15.0 mph 28.8 mph N/A   Clear
11:52 AM 50.0 °F - 19.0 °F 29% 30.14 in 10.0 mi WNW 17.3 mph 29.9 mph N/A   Clear
12:52 PM 53.1 °F - 19.9 °F 27% 30.12 in 10.0 mi NW 13.8 mph 25.3 mph N/A   Clear
1:52 PM 54.0 °F - 18.0 °F 24% 30.10 in 10.0 mi WNW 16.1 mph 25.3 mph N/A   Clear
2:52 PM 54.0 °F - 18.0 °F 24% 30.10 in 10.0 mi West 17.3 mph 31.1 mph N/A   Clear
3:52 PM 53.1 °F - 18.0 °F 25% 30.10 in 10.0 mi West 16.1 mph 26.5 mph N/A   Clear
4:52 PM 53.1 °F - 18.0 °F 25% 30.12 in 10.0 mi West 11.5 mph 21.9 mph N/A   Clear
5:52 PM 51.1 °F - 19.0 °F 28% 30.15 in 10.0 mi West 10.4 mph - N/A   Clear
6:52 PM 46.9 °F - 21.0 °F 36% 30.20 in 10.0 mi WNW 3.5 mph - N/A   Clear
7:52 PM 44.1 °F 41.5 °F 24.1 °F 45% 30.25 in 10.0 mi NNW 4.6 mph - N/A   Clear
8:52 PM 45.0 °F 43.5 °F 21.0 °F 39% 30.27 in 10.0 mi North 3.5 mph - N/A   Clear
9:52 PM 41.0 °F 36.4 °F 21.9 °F 47% 30.30 in 10.0 mi NNE 6.9 mph - N/A   Clear
10:52 PM 39.0 °F 34.8 °F 21.9 °F 50% 30.33 in 10.0 mi NE 5.8 mph - N/A   Clear
11:52 PM 37.9 °F 34.4 °F 19.9 °F 48% 30.34 in 10.0 mi NNE 4.6 mph - N/A   Clear